Location: Jackson
(42.2460°N, 84.4010°W)
Time: 02:44:47
(UTC-05:00)

SR - Visible Passes

Search period start: 15 February 2026 00:00
Search period end: 25 February 2026 00:00
Orbit: 574 x 847 km, 66.7° (Epoch: 13 February)

Date Brightness Start Highest point End Pass type
(mag) Time Alt. Az. Time Alt. Az. Time Alt. Az.
15 Feb ? 05:34:05 41° S 05:35:26 68° ESE 05:39:46 10° NE visible
16 Feb ? 04:41:23 25° E 04:41:23 25° E 04:44:20 10° NE visible
16 Feb ? 06:20:28 23° W 06:22:14 31° NW 06:26:12 10° NNE visible
17 Feb ? 05:27:34 67° N 05:27:34 67° N 05:31:32 10° NNE visible
18 Feb ? 04:34:30 23° ENE 04:34:30 23° ENE 04:36:26 10° NE visible
18 Feb ? 06:13:34 21° WNW 06:14:09 21° NW 06:17:36 10° N visible
19 Feb ? 05:20:24 32° N 05:20:24 32° N 05:23:11 10° NNE visible
20 Feb ? 04:27:08 18° NE 04:27:08 18° NE 04:28:19 10° NE visible
20 Feb ? 06:06:12 15° NW 06:06:12 15° NW 06:08:48 10° N visible
21 Feb ? 05:12:52 20° N 05:12:52 20° N 05:14:43 10° NNE visible
22 Feb ? 04:19:28 14° NNE 04:19:28 14° NNE 04:20:04 10° NNE visible
22 Feb ? 05:58:31 11° NNW 05:58:31 11° NNW 05:59:29 10° NNW visible
23 Feb ? 05:05:04 14° N 05:05:04 14° N 05:06:06 10° N visible
24 Feb ? 04:11:35 11° NNE 04:11:35 11° NNE 04:11:42 10° NNE visible
